SCP
0 0 0 0 0 0 0 0 0 0 0 0 1 0 0 0 1 1 1 1 1 0 1 1 1 1 2 2 2 3 3 2 1 1 1 1 1 1 1 1 1 1 1 1
0 0 0 0 0 0 0 0 0 0 0 0 0 0 0 1 1 1 1 1 1 1 1 1 1 1 1 1 1 2 2 1 1 1 1 1 1 1 1 1 1 1 1 1
0 0 0 0 0 0 0 0 0 0 0 1 1 1 1 1 1 1 1 1 1 1 1 1 1 1 1 1 1 1 1 1 0 0 1 1 1 1 1 1 1 1 1 1
0 0 0 0 0 0 1 1 1 1 1 1 1 1 1 1 1 1 1 1 1 1 1 1 1 2 2 2 2 1 1 0 0 0 1 1 1 1 1 1 1 1 1 1
0 0 0 0 0 1 1 1 1 1 1 1 1 1 1 1 1 1 0 0 0 1 1 1 2 2 2 2 2 1 1 0 0 0 0 0 1 1 1 0 0 1 1 0
0 0 0 0 0 1 1 1 1 1 1 2 1 1 1 1 1 1 0 0 0 0 1 1 1 1 2 2 2 1 1 0 0 0 0 0 0 0 0 0 0 0 0 0
0 0 0 0 0 0 1 1 1 1 1 2 1 1 2 2 1 1 0 0 0 0 0 0 1 1 1 1 1 1 0 0 0 0 0 0 0 0 0 0 0 0 0 0
0 0 0 0 0 1 1 1 1 1 1 1 2 2 2 2 1 0 0 0 0 0 0 0 0 0 0 0 0 0 0 0 0 0 0 0 0 0 0 0 0 0 0 0
0 0 0 0 0 1 1 1 1 1 1 1 2 2 2 1 1 0 0 0 0 0 0 0 0 0 0 0 0 0 0 0 0 0 0 0 0 0 0 0 0 0 0 0
0 0 0 0 0 1 1 1 1 1 1 1 2 1 1 0 0 0 0 0 0 0 0 0 0 0 0 0 0 0 0 0 0 0 0 0 0 0 0 0 0 0 0 0
0 0 0 0 0 1 1 1 1 1 1 1 1 1 0 0 0 0 0 0 0 0 0 0 0 0 0 0 0 0 0 0 0 0 0 0 0 0 0 0 0 0 0 0
0 0 0 0 0 1 1 1 1 1 0 0 0 0 0 0 0 0 0 0 0 0 0 0 0 0 0 0 0 0 0 0 0 0 0 0 0 0 0 0 0 0 0 0
0 0 0 0 0 1 1 0 0 0 0 0 0 0 0 0 0 0 0 0 0 0 0 0 0 0 0 0 0 0 0 0 0 0 0 0 0 0 0 0 0 0 0 0
0 0 0 0 0 0 0 0 0 0 0 0 0 0 0 0 0 0 0 0 0 0 0 0 0 0 0 0 0 0 0 0 0 0 0 0 0 0 0 0 0 0 0 0
0 0 0 0 0 0 0 0 0 0 0 0 0 0 0 0 0 0 0 0 0 0 0 0 0 0 0 0 0 0 0 0 0 0 0 0 0 0 0 0 0 0 0 0
0 0 0 0 0 0 0 0 0 0 0 0 0 0 0 0 0 0 0 0 0 0 0 0 0 0 0 0 0 0 0 0 0 0 0 0 0 0 0 0 0 0 0 0
0 0 0 0 0 0 0 0 0 0 0 0 0 0 0 0 0 0 0 0 0 0 0 0 0 0 0 0 0 0 0 0 0 0 0 0 0 0 0 0 0 0 0 0
0 0 0 0 0 0 0 0 0 0 0 0 0 0 0 0 0 0 0 0 0 0 0 0 0 0 0 0 0 0 0 0 0 0 0 0 0 0 0 0 0 0 0 0
0 0 0 0 0 0 0 0 0 0 0 0 0 0 0 0 0 0 0 0 0 0 0 0 0 0 0 0 0 0 0 0 0 0 0 0 0 0 0 0 0 0 0 0
0 0 0 0 0 0 0 0 0 0 0 0 0 0 0 0 0 0 0 0 0 0 0 0 0 0 0 0 0 0 0 0 0 0 0 0 0 0 0 0 0 0 0 0
0 0 0 0 0 0 0 0 0 0 0 0 0 0 0 0 0 0 0 0 0 0 0 0 0 0 0 0 0 0 0 0 0 0 0 0 0 0 0 0 0 0 0 0
0 0 0 0 0 0 0 0 0 0 0 0 0 0 0 0 0 0 0 0 0 0 0 0 0 0 0 0 0 0 0 0 0 0 0 0 0 0 0 0 0 0 0 0
0 0 0 0 0 0 0 0 0 0 0 0 0 0 0 0 0 0 0 0 0 0 0 0 0 0 0 0 0 0 0 0 0 0 0 0 0 0 0 0 0 0 0 0
0 0 0 0 0 0 0 0 0 0 0 0 0 0 0 0 0 0 0 0 0 0 0 0 0 0 0 0 0 0 0 0 0 0 0 0 0 0 0 0 0 0 0 0
0 0 0 0 0 0 0 0 0 0 0 0 0 0 0 0 0 0 0 0 0 0 0 0 0 0 0 0 0 0 0 0 0 0 0 0 0 0 0 0 0 0 0 0
0 0 0 0 0 0 0 0 0 0 0 0 0 0 0 0 0 0 0 0 0 0 0 0 0 0 0 0 0 0 0 0 0 0 0 0 0 0 0 0 0 0 0 0
0 0 0 0 0 0 0 0 0 0 0 0 0 0 0 0 0 0 0 0 0 0 0 0 0 0 0 0 0 0 0 0 0 0 0 0 0 0 0 0 0 0 0 0
Wind_Speed
5 5 4 5 6 8 7 8 9 8 8 9 5 4 3 3 3 5 4 4 3 3 3 3 3 3 4 4 5 6 6 6 5 5 5 5 5 5 5 5 6 6 5 6
3 4 5 5 7 8 7 5 6 4 7 4 2 3 3 4 5 5 5 4 4 4 4 3 3 3 3 3 4 6 6 4 3 4 4 4 4 4 4 4 4 4 5 5
4 4 2 7 8 9 7 6 8 9 8 4 4 5 4 4 5 6 5 5 5 4 4 4 3 4 4 4 5 6 6 4 3 3 3 2 2 2 3 3 3 3 3 3
2 1 8 9 4 5 6 5 6 5 4 7 8 8 6 5 7 7 7 6 5 5 5 5 5 6 6 7 7 7 6 5 4 3 3 3 3 2 1 1 2 2 2 2
4 4 7 6 3 3 5 5 6 8 9 11 12 10 7 7 7 8 8 7 6 6 6 7 7 7 9 9 8 8 7 6 4 3 3 4 3 2 2 2 3 2 2 2
3 4 7 7 3 1 3 4 4 9 13 13 9 6 4 5 8 10 10 8 8 8 9 10 8 8 11 10 9 8 7 5 4 5 5 5 4 4 4 5 5 5 6 6
4 5 8 4 2 2 5 8 3 8 11 10 5 6 10 10 9 10 10 10 10 11 10 8 7 10 12 11 9 6 7 7 8 7 7 6 6 5 6 7 7 8 8 7
4 4 8 3 1 4 5 0 3 6 8 11 14 16 14 12 11 10 10 10 10 11 10 8 8 11 12 9 6 6 8 9 9 8 7 7 7 7 6 7 7 7 7 7
5 6 4 3 3 3 2 3 4 7 12 17 18 16 15 12 11 10 10 9 8 10 11 9 9 9 10 6 5 7 9 9 8 8 8 7 7 7 6 6 6 5 5 5
3 5 4 4 2 2 3 5 8 12 14 16 18 17 16 13 11 9 9 8 8 11 11 9 8 9 7 6 6 9 9 8 7 8 8 8 7 6 5 5 5 5 5 4
3 3 3 4 4 4 8 11 13 13 13 16 19 17 16 13 11 9 8 7 8 10 10 8 8 8 7 6 7 9 8 7 7 7 7 7 8 7 6 6 4 5 4 3
3 2 1 1 3 5 9 11 14 16 14 13 15 17 15 12 9 9 8 8 9 9 9 7 7 7 6 6 7 8 7 6 5 5 5 6 7 8 12 10 12 11 8 5
2 2 4 4 6 7 10 12 14 15 15 15 13 14 14 11 9 9 9 9 8 8 7 7 7 7 5 5 6 7 6 5 4 4 5 5 5 5 5 6 10 11 10 9
3 4 6 6 8 10 13 15 15 15 14 13 13 13 12 11 10 10 8 7 7 7 7 6 7 6 4 4 6 6 5 6 5 4 4 4 4 4 4 4 4 4 6 9
6 7 8 9 11 12 13 15 16 15 14 13 11 11 11 11 10 8 7 7 8 8 6 6 6 5 4 4 6 6 5 4 4 4 4 4 4 4 4 4 4 3 3 5
9 11 11 12 12 11 12 14 15 13 12 11 10 10 9 9 9 7 6 6 7 7 5 5 5 3 3 4 6 5 4 7 6 4 4 4 4 4 3 3 3 3 3 4
9 8 10 11 11 10 10 10 11 10 10 10 10 10 10 10 9 7 6 5 6 5 4 4 3 3 3 4 5 4 4 5 7 5 4 4 3 3 3 2 2 2 3 3
8 8 8 10 11 11 10 10 10 10 9 9 9 9 9 8 7 6 6 6 7 6 4 3 3 4 4 4 4 4 4 4 4 4 3 3 3 2 2 2 2 2 2 3
11 11 11 11 10 10 10 9 8 8 8 8 9 8 7 6 6 6 6 6 6 4 2 2 5 5 4 4 5 4 5 5 4 4 3 4 3 2 2 2 2 2 2 3
11 11 12 11 10 10 10 9 9 8 7 8 8 8 7 5 5 6 6 4 2 2 2 3 4 4 4 4 5 4 4 5 4 3 3 3 2 2 2 2 2 2 3 3
11 11 11 10 10 9 8 8 8 8 6 7 7 7 6 5 5 5 5 3 1 2 3 4 3 3 3 4 5 4 4 4 3 3 2 2 2 2 2 2 2 2 3 3
8 9 9 8 9 7 6 6 6 7 6 5 6 6 6 5 5 4 3 2 2 3 3 3 2 3 5 5 4 4 4 4 3 2 2 2 1 1 2 2 2 2 3 3
7 7 8 7 7 7 6 6 5 5 5 5 5 4 4 3 3 3 2 1 2 4 4 3 4 7 8 5 4 4 4 4 3 2 2 1 1 1 1 2 2 2 3 3
7 7 6 6 7 8 6 4 4 4 5 4 4 4 4 3 1 1 2 4 5 6 3 4 7 8 7 4 4 4 3 3 2 2 2 1 1 2 2 2 2 3 3 4
6 6 6 7 6 4 4 4 5 5 5 3 3 3 2 2 2 2 3 4 6 6 4 5 8 8 5 4 4 3 3 2 2 2 2 2 2 1 2 2 2 2 3 3
5 5 4 4 3 3 3 3 3 2 2 2 2 2 2 2 3 3 3 4 5 5 4 3 4 5 4 4 4 3 3 3 2 2 2 1 2 2 2 2 3 2 3 3
6 5 4 4 3 3 3 3 3 2 1 2 1 1 2 3 3 4 4 4 4 4 3 3 3 3 4 3 3 3 2 2 2 2 1 1 1 1 1 2 2 2 2 3
Wind_Direction
238 244 210 220 206 182 184 187 187 222 223 244 231 208 177 142 118 109 100 101 112 122 122 125 128 136 149 158 162 161 158 166 185 183 179 179 185 187 184 185 194 194 199 206
275 262 232 237 226 202 205 195 209 222 247 238 149 120 120 125 122 118 109 103 105 107 111 118 126 129 126 127 141 140 144 154 159 149 157 174 184 180 175 180 184 182 196 202
250 275 284 249 221 199 198 196 181 203 224 151 129 121 123 126 120 116 107 95 93 96 99 98 101 110 107 101 106 113 115 115 113 122 139 160 161 154 164 172 168 176 193 191
207 201 229 242 246 202 192 204 195 190 158 141 127 105 83 90 109 104 97 90 83 83 85 81 82 88 92 89 93 97 99 95 92 106 103 99 107 123 140 142 144 150 160 171
167 212 263 279 248 186 181 229 195 164 142 131 126 99 71 65 89 98 94 89 82 76 79 76 72 80 85 80 81 81 75 70 67 87 93 88 86 84 88 96 98 105 103 115
171 194 231 244 243 239 124 250 203 161 155 154 147 128 131 103 96 93 88 84 81 76 73 70 67 78 83 78 73 70 68 66 60 68 76 76 75 72 71 76 74 75 63 57
198 223 256 261 281 126 183 227 185 161 155 152 139 129 124 115 101 94 90 85 81 76 69 62 65 79 78 71 62 59 65 64 59 59 66 70 73 73 80 81 78 72 67 57
182 213 250 304 258 201 224 240 128 133 133 123 115 114 114 110 102 96 91 84 83 82 73 60 63 79 78 68 57 64 68 65 58 54 59 64 70 67 70 79 80 74 72 61
203 228 270 301 265 275 217 138 117 121 126 126 122 119 114 108 101 95 91 85 84 87 78 62 56 72 78 62 64 71 69 63 60 60 56 56 65 69 68 70 77 72 70 65
261 278 308 333 338 348 114 116 117 123 126 125 120 120 117 112 106 98 90 88 89 87 82 69 58 62 66 64 71 74 69 60 58 62 58 53 52 55 65 65 75 76 73 68
252 285 338 6 30 77 99 108 111 112 117 124 124 122 120 117 113 105 97 89 88 89 86 76 66 60 53 59 74 75 69 63 62 65 70 66 61 51 56 51 75 92 84 80
232 243 168 354 28 91 106 110 115 114 109 112 119 121 120 117 113 110 104 97 91 87 87 82 76 65 49 52 74 80 72 63 66 73 75 79 83 71 53 62 63 67 72 75
184 115 104 88 72 81 100 109 112 114 116 115 112 117 117 114 111 109 106 104 101 98 94 88 78 64 45 53 74 80 82 77 76 80 85 84 84 90 79 51 52 54 53 52
122 112 93 85 89 94 101 102 102 102 104 108 112 113 114 111 110 110 109 107 104 99 91 86 80 62 38 61 78 79 80 82 86 85 87 86 85 84 84 78 53 34 28 33
60 85 101 98 94 96 101 104 102 101 103 102 106 110 113 113 112 108 105 106 101 94 88 84 77 53 32 66 81 82 82 83 81 81 81 81 81 80 76 73 66 46 25 16
89 90 95 96 97 101 104 107 108 109 110 108 106 106 108 108 106 102 101 109 110 107 102 90 77 46 50 80 87 82 83 97 93 89 85 82 79 80 74 68 59 43 28 11
101 99 103 103 99 96 96 103 110 112 112 112 113 113 110 107 103 98 95 96 101 101 97 97 87 63 68 83 93 93 89 92 91 87 84 83 82 79 74 66 52 34 14 359
96 100 107 112 112 105 98 98 103 107 110 113 113 112 112 114 116 115 110 103 95 80 66 75 86 80 74 83 94 98 98 95 92 91 87 82 79 72 67 57 39 23 2 355
97 97 95 96 101 103 101 98 98 100 103 105 103 103 106 111 117 117 113 107 106 99 72 67 92 88 82 90 101 99 102 101 95 89 87 85 76 61 50 38 21 8 358 358
92 93 93 92 92 96 98 97 97 95 98 105 105 104 101 105 115 115 106 96 92 132 129 106 100 95 91 96 102 100 104 107 105 98 86 78 68 52 39 30 21 10 3 360
95 96 96 96 92 91 96 103 104 102 100 106 112 116 113 106 107 112 112 105 66 103 106 105 102 104 102 107 104 104 105 105 104 99 90 79 65 53 41 33 24 14 7 2
94 97 97 99 98 90 83 93 105 108 105 103 106 111 113 111 106 95 93 133 149 127 114 107 103 111 113 109 104 104 102 100 96 93 86 77 66 53 43 32 23 16 13 7
94 96 97 98 101 95 80 76 88 100 104 107 113 119 123 128 132 130 133 145 130 123 115 116 122 120 114 103 100 98 99 99 97 93 86 76 63 53 41 28 23 19 13 5
91 92 93 94 94 91 84 75 75 81 88 91 99 116 124 122 98 83 133 143 138 125 115 123 122 118 109 101 100 100 100 97 91 83 74 65 57 52 42 33 26 15 8 3
87 89 92 96 93 95 101 95 85 80 81 78 77 82 94 122 140 142 125 127 126 117 108 117 118 114 109 109 110 108 105 100 98 89 72 64 57 54 46 35 25 12 2 356
88 89 88 92 103 111 109 103 97 92 92 82 61 55 65 79 99 106 107 114 118 115 113 113 115 111 111 113 113 110 105 101 91 81 78 74 67 61 49 34 22 8 356 350
79 77 77 68 59 74 92 97 101 101 103 115 102 82 89 95 99 109 116 116 114 113 111 109 110 115 117 115 113 111 110 107 98 90 86 81 75 62 40 20 3 352 347 344